[[{"header":{"parameterUnit":"m.s-1","parameterCategory":2,"la1":30.2991,"la2":30.254,"lo1":-89.0895,"lo2":-89.0444,"dy":0.0017,"dx":0.0017,"nx":28,"ny":28,"refTime":"2024-08-27T03:00:00:Z","depth":"0","parameterNumber":2,"parameterNumberName":"U-component_of_CURRENTS"},"data":[0,0,0,0,0,0,0,0,0,0,0,0,0,0,0,0,0,0,0,0,0,0,0,0,0,0,0,0,0,0,0,0,0,0,0,0,0,0,0,0,0,0,0,0,0,0,0,0,0,0,0,0,0,0,0,0,0,0,-0.3608,-0.361,0,-0.3756,-0.3758,-0.376,-0.3808,-0.3807,-0.3806,-0.3806,-0.3823,-0.3824,-0.3825,0,0,0,0,0,0,0,0,0,0,0,0,0,-0.3296,-0.3302,-0.3608,-0.361,-0.3612,-0.3756,-0.3758,-0.376,-0.3808,-0.3807,-0.3806,-0.3806,-0.3822,-0.3823,-0.3825,0,0,0,0,0,0,0,0,0,0,0,0,0,-0.3436,-0.3304,-0.3607,-0.3653,-0.3659,-0.3756,-0.3758,-0.3761,-0.3808,-0.3807,-0.3806,-0.3805,-0.3822,-0.3823,-0.3825,-0.3852,0,0,-0.3829,-0.383,0,0,0,0,0,0,0,0,-0.3428,-0.3447,-0.3645,-0.365,-0.3657,-0.3763,-0.3655,-0.3785,-0.3808,-0.375,-0.3806,-0.3805,-0.3792,-0.3796,-0.3826,-0.3852,-0.3853,-0.383,-0.383,-0.3831,-0.3831,0,0,0,0,0,0,0,-0.3419,-0.3441,-0.3666,-0.3647,-0.3654,-0.3643,-0.3663,-0.368,-0.3771,-0.3755,-0.3759,-0.3778,-0.3794,-0.3825,-0.3827,-0.3853,-0.3829,-0.3831,-0.3832,-0.3832,-0.3845,-0.3845,0,0,0,0,0,0,-0.3408,-0.3433,-0.3661,-0.367,-0.3539,-0.365,-0.3671,-0.3729,-0.3774,-0.3781,-0.3778,-0.3779,-0.3823,-0.3825,-0.3827,-0.377,-0.3831,-0.3832,-0.3833,-0.3846,-0.3845,-0.3844,0,0,0,0,0,0,-0.3401,-0.3429,-0.3655,-0.3552,-0.358,-0.3657,-0.3721,-0.3733,-0.3757,-0.3793,-0.3797,-0.3789,-0.3822,-0.3825,-0.3822,-0.3774,-0.3833,-0.3834,-0.3846,-0.3845,-0.3845,-0.3714,0,0,0,0,0,0,-0.3393,-0.3426,-0.3441,-0.3554,-0.3586,-0.3688,-0.3722,-0.3736,-0.3771,-0.3773,-0.3804,-0.3806,-0.3822,-0.3819,-0.3823,-0.3777,-0.3836,-0.3847,-0.3846,-0.3845,-0.3719,-0.3709,-0.37,0,0,0,0,0,-0.3382,-0.3383,-0.3443,-0.3468,-0.3614,-0.3688,-0.3702,-0.3751,-0.3772,-0.3772,-0.3791,-0.3804,-0.3815,-0.382,-0.3825,-0.3778,-0.3847,-0.3846,-0.3845,-0.3723,-0.3711,-0.37,0,0,0,0,0,0,-0.3235,-0.3393,-0.3458,-0.3507,-0.359,-0.3695,-0.3683,-0.3747,-0.3771,-0.3757,-0.38,-0.3802,-0.3781,-0.3811,-0.3815,-0.3784,-0.3833,-0.3832,-0.3739,-0.3727,-0.3718,-0.367,-0.3837,0,0,0,0,0,-0.3224,-0.3272,-0.3421,-0.345,-0.3489,-0.3595,-0.3625,-0.3676,-0.3724,-0.3736,-0.3767,-0.3785,-0.3785,-0.3779,-0.3793,-0.3778,-0.3779,-0.3754,-0.3745,-0.3736,-0.3704,-0.3679,-0.3662,-0.384,-0.384,-0.384,0,0,-0.3172,-0.3261,-0.3288,-0.3422,-0.3482,-0.3514,-0.3608,-0.3644,-0.3648,-0.3729,-0.3713,-0.3753,-0.3777,-0.3752,-0.3745,-0.3765,-0.3687,-0.3735,-0.3726,-0.3698,-0.3675,-0.3658,-0.3642,-0.3839,-0.384,-0.384,0,0,-0.3077,-0.3178,-0.3189,-0.3254,-0.3355,-0.3426,-0.3439,-0.3555,-0.3575,-0.3596,-0.364,-0.3646,-0.3675,-0.367,-0.3671,-0.3622,-0.3642,-0.3642,-0.3542,-0.3518,-0.3502,-0.3488,-0.3458,-0.3443,-0.3631,-0.363,-0.363,0,-0.3009,-0.3076,-0.319,-0.321,-0.3251,-0.3381,-0.3394,-0.3425,-0.3519,-0.3535,-0.356,-0.3602,-0.3619,-0.3578,-0.3554,-0.359,-0.359,-0.3576,-0.3501,-0.3487,-0.3475,-0.3448,-0.3432,-0.3624,-0.3625,-0.3625,-0.3626,0,-0.2936,-0.2987,-0.2982,-0.3072,-0.3115,-0.3144,-0.3234,-0.3265,-0.3322,-0.3375,-0.3377,-0.3415,-0.3445,-0.3447,-0.3474,-0.3406,-0.3438,-0.3492,-0.3517,-0.3448,-0.3426,-0.3411,-0.3615,-0.3617,-0.3619,-0.3621,0,0,-0.2827,-0.2924,-0.2928,-0.2968,-0.3062,-0.3104,-0.3087,-0.3155,-0.3167,-0.3207,-0.3216,-0.3197,-0.3259,-0.3265,-0.3313,-0.3275,-0.3182,-0.3334,-0.3336,-0.328,-0.3122,-0.3058,-0.3037,-0.3229,-0.3226,-0.3224,-0.3137,0,-0.2758,-0.2777,-0.2841,-0.2851,-0.2886,-0.2985,-0.2977,-0.3029,-0.3084,-0.3115,-0.313,-0.3153,-0.3175,-0.3208,-0.316,-0.3214,-0.3141,-0.32,-0.3218,-0.3217,-0.3149,-0.3016,-0.2896,-0.2801,-0.3124,-0.3122,-0.312,0,-0.2687,-0.2727,-0.273,-0.2816,-0.2838,-0.284,-0.2909,-0.2924,-0.2968,-0.3012,-0.3019,-0.3072,-0.3033,-0.3074,-0.3021,-0.3067,-0.3053,-0.3063,-0.3062,-0.303,-0.3125,-0.2928,-0.2764,-0.2748,-0.3099,-0.31,-0.3102,0,-0.26,-0.2659,-0.2668,-0.2692,-0.2782,-0.2788,-0.2832,-0.2886,-0.2915,-0.2952,-0.2989,-0.2968,-0.299,-0.295,-0.2967,-0.2998,-0.2913,-0.2977,-0.2879,-0.2877,-0.2786,-0.278,-0.2581,-0.2872,-0.2872,-0.2872,-0.2872,0,-0.2535,-0.2546,-0.2629,-0.2638,-0.2651,-0.273,-0.2744,-0.2793,-0.2853,-0.2871,-0.2929,-0.2932,-0.2959,-0.2941,-0.2927,-0.2847,-0.2874,-0.2803,-0.2825,-0.274,-0.273,-0.2728,-0.2781,-0.2869,-0.287,-0.287,-0.2871,0,-0.2437,-0.2494,-0.2512,-0.2591,-0.2609,-0.2615,-0.2695,-0.2718,-0.279,-0.2815,-0.2826,-0.2895,-0.2866,-0.2871,-0.2835,-0.2801,-0.2688,-0.2702,-0.2593,-0.26,-0.2481,-0.2534,-0.2364,-0.23,-0.2556,-0.2554,-0.2551,0,-0.2386,-0.2384,-0.2452,-0.2461,-0.249,-0.2524,-0.2552,-0.2656,-0.2687,-0.2775,-0.2775,-0.2786,-0.2751,-0.2681,-0.2622,-0.2538,-0.2567,-0.2397,-0.2403,-0.2387,-0.2465,-0.2503,-0.2466,-0.2241,-0.2236,-0.2233,-0.223,0,-0.2281,-0.2301,-0.2323,-0.234,-0.2364,-0.24,-0.2448,-0.2467,-0.2583,-0.2608,-0.2618,-0.2598,-0.2554,-0.2426,-0.2355,-0.2298,-0.2333,-0.2317,-0.232,-0.2176,-0.2184,-0.2165,-0.2407,-0.2197,-0.22,-0.2203,-0.2205,-0.2206,-0.2181,-0.2169,-0.2189,-0.2195,-0.2229,-0.2237,-0.2207,-0.2281,-0.2291,-0.2294,-0.2383,-0.2323,-0.2295,-0.2162,-0.2112,-0.1992,-0.2068,-0.194,-0.2,-0.2035,-0.1963,-0.2115,-0.1931,-0.1933,-0.1934,-0.1936,-0.1937,0,-0.2043,-0.2042,-0.2044,-0.2039,-0.2014,-0.208,-0.2105,-0.2052,-0.2001,-0.2059,-0.2027,-0.2003,-0.1891,-0.1894,-0.1799,-0.1716,-0.1684,-0.1686,-0.1708,-0.1681,-0.1807,-0.1782,-0.1532,-0.1532,-0.1532,-0.1532,-0.1532,-0.1532,-0.1964,-0.191,-0.1916,-0.1811,-0.1808,-0.1714,-0.1689,-0.1644,-0.1646,-0.1581,-0.1594,-0.165,-0.1687,-0.1806,-0.17,-0.1613,-0.1597,-0.1521,-0.1578,-0.1692,-0.1721,-0.1749,-0.1732,-0.1477,-0.1477,-0.1362,-0.1361,-0.1361]},{"header":{"parameterUnit":"m.s-1","parameterCategory":2,"la1":30.2991,"la2":30.254,"lo1":-89.0895,"lo2":-89.0444,"dy":0.0017,"dx":0.0017,"nx":28,"ny":28,"refTime":"2024-08-27T03:00:00:Z","depth":"0","parameterNumber":3,"parameterNumberName":"V-component_of_CURRENTS"},"data":[0,0,0,0,0,0,0,0,0,0,0,0,0,0,0,0,0,0,0,0,0,0,0,0,0,0,0,0,0,0,0,0,0,0,0,0,0,0,0,0,0,0,0,0,0,0,0,0,0,0,0,0,0,0,0,0,0,0,-0.0177,-0.0175,0,0.0037,0.004,0.0043,0.0193,0.0194,0.0195,0.0195,0.0473,0.0479,0.0486,0,0,0,0,0,0,0,0,0,0,0,0,0,-0.0352,-0.035,-0.0177,-0.0175,-0.0173,0.0037,0.004,0.0044,0.0193,0.0194,0.0195,0.0196,0.0471,0.0479,0.0487,0,0,0,0,0,0,0,0,0,0,0,0,0,-0.0218,-0.035,-0.0178,-0.0076,-0.0065,0.0036,0.004,0.0045,0.0193,0.0194,0.0195,0.0196,0.0468,0.0478,0.0488,0.0525,0,0,0.0518,0.0522,0,0,0,0,0,0,0,0,-0.0226,-0.0211,-0.0093,-0.0083,-0.007,0.0086,0.008,0.0207,0.0192,0.0099,0.0195,0.0197,0.0346,0.0366,0.0408,0.0538,0.055,0.0519,0.0525,0.0529,0.0532,0,0,0,0,0,0,0,-0.0235,-0.0219,-0.0088,-0.0091,-0.0077,-0.0005,0.0015,0.0106,0.0217,0.0107,0.0118,0.0135,0.0354,0.0398,0.0416,0.0554,0.0519,0.0528,0.0534,0.0538,0.0744,0.0744,0,0,0,0,0,0,-0.0276,-0.0228,-0.0095,-0.0082,-0.0151,-0.0003,0.0019,0.0038,0.0215,0.0242,0.0134,0.0141,0.0381,0.0404,0.0426,0.047,0.0529,0.0539,0.0544,0.0745,0.0744,0.0744,0,0,0,0,0,0,-0.0281,-0.0266,-0.0104,-0.0153,-0.0128,-0.0003,0.0018,0.0041,0.0086,0.0234,0.0263,0.0153,0.0383,0.0413,0.0493,0.0483,0.0543,0.0552,0.0746,0.0745,0.0744,0.0565,0,0,0,0,0,0,-0.0287,-0.0269,-0.0272,-0.0156,-0.0127,-0.0058,0.0017,0.0045,0.0093,0.0105,0.026,0.0287,0.0386,0.0477,0.0502,0.0497,0.056,0.0746,0.0745,0.0744,0.0571,0.0558,0.0547,0,0,0,0,0,-0.0294,-0.0305,-0.0274,-0.0258,-0.0135,-0.006,-0.0038,0.0059,0.0092,0.0104,0.0202,0.0282,0.049,0.0484,0.0514,0.0512,0.0747,0.0745,0.0744,0.0577,0.0561,0.0547,0,0,0,0,0,0,-0.0378,-0.0287,-0.0251,-0.0233,-0.0161,-0.0036,-0.0019,0.0042,0.013,0.0138,0.0275,0.0309,0.038,0.0466,0.0456,0.057,0.0633,0.0637,0.0495,0.0481,0.0469,0.0459,0.0568,0,0,0,0,0,-0.0404,-0.0389,-0.029,-0.0277,-0.0251,-0.0142,-0.0102,-0.0039,0.0053,0.0094,0.0199,0.0308,0.04,0.0452,0.0551,0.0606,0.0674,0.0626,0.0613,0.0602,0.0616,0.0676,0.067,0.074,0.074,0.074,0,0,-0.0433,-0.0383,-0.0374,-0.0295,-0.0233,-0.0198,-0.0113,-0.0067,-0.0032,0.0108,0.0177,0.027,0.0405,0.0472,0.0511,0.0541,0.0613,0.0601,0.059,0.0611,0.0675,0.0668,0.0661,0.074,0.074,0.074,0,0,-0.0482,-0.0445,-0.0444,-0.0398,-0.0322,-0.0255,-0.0252,-0.0141,-0.0089,-0.002,0.0088,0.0163,0.0309,0.0399,0.0464,0.0442,0.0546,0.0476,0.0408,0.0464,0.0459,0.0455,0.0502,0.0504,0.0468,0.0467,0.0467,0,-0.052,-0.0501,-0.0434,-0.042,-0.039,-0.0292,-0.028,-0.0217,-0.0093,-0.0053,-0.0023,0.0178,0.0277,0.037,0.0365,0.0414,0.0463,0.0444,0.0445,0.0443,0.0442,0.0492,0.0496,0.0458,0.0459,0.046,0.0461,0,-0.0556,-0.0545,-0.0547,-0.0497,-0.0458,-0.0439,-0.0349,-0.0308,-0.0244,-0.0165,-0.0073,0.0052,0.0176,0.0207,0.0285,0.0333,0.0373,0.0416,0.0471,0.0423,0.048,0.0487,0.0446,0.0449,0.0452,0.0454,0,0,-0.0615,-0.058,-0.0578,-0.0571,-0.0499,-0.0467,-0.0434,-0.0356,-0.0324,-0.0228,-0.0172,-0.004,0.0028,0.0107,0.0202,0.0251,0.0267,0.032,0.0327,0.0347,0.0385,0.0432,0.0446,0.0302,0.0303,0.0304,0.0416,0,-0.0657,-0.0671,-0.0627,-0.0628,-0.0625,-0.0544,-0.0515,-0.0439,-0.0361,-0.0288,-0.0173,-0.0082,-0.0011,0.0041,0.0096,0.0248,0.0285,0.0233,0.045,0.0456,0.0487,0.0455,0.0482,0.0587,0.0424,0.0426,0.0427,0,-0.0692,-0.0698,-0.0719,-0.0692,-0.0681,-0.0666,-0.0601,-0.0559,-0.0445,-0.0384,-0.0291,-0.0182,-0.0071,-0.002,0.0172,0.0135,0.0243,0.0339,0.0346,0.0467,0.0518,0.0619,0.0608,0.0756,0.044,0.0439,0.0438,0,-0.0758,-0.0753,-0.0778,-0.077,-0.0726,-0.0717,-0.0686,-0.0592,-0.0554,-0.0441,-0.0396,-0.0252,-0.0164,-0.0024,0.0181,0.0177,0.0388,0.0408,0.0543,0.0548,0.0657,0.067,0.0806,0.0518,0.0518,0.0517,0.0517,0,-0.0811,-0.0825,-0.0817,-0.0828,-0.0851,-0.079,-0.0781,-0.0726,-0.0642,-0.0592,-0.0455,-0.0375,-0.016,-0.0002,0.0158,0.0383,0.0369,0.0538,0.0583,0.0593,0.0598,0.0806,0.0867,0.0522,0.0521,0.052,0.0519,0,-0.0867,-0.0865,-0.0893,-0.0882,-0.0884,-0.0898,-0.0863,-0.0846,-0.0759,-0.069,-0.0657,-0.0458,-0.0241,-0.0025,0.0233,0.0365,0.0667,0.0643,0.0637,0.0679,0.093,0.0979,0.1182,0.1284,0.0801,0.0803,0.0804,0,-0.0895,-0.0921,-0.0947,-0.0978,-0.0977,-0.0988,-0.0992,-0.0919,-0.0889,-0.0727,-0.0694,-0.0474,-0.0285,0.0101,0.0374,0.0655,0.0768,0.0825,0.0822,0.0954,0.1043,0.1064,0.1137,0.0887,0.0889,0.0891,0.0893,0,-0.0945,-0.0957,-0.0985,-0.1055,-0.1083,-0.1103,-0.1095,-0.1086,-0.0975,-0.0882,-0.0707,-0.0543,-0.0156,0.0207,0.0562,0.0719,0.0936,0.0869,0.1019,0.1136,0.1159,0.1275,0.0794,0.0908,0.0907,0.0905,0.0905,0.0904,-0.0977,-0.102,-0.1064,-0.1125,-0.1166,-0.1189,-0.1185,-0.1134,-0.106,-0.0878,-0.0723,-0.0432,0.0063,0.0589,0.078,0.1148,0.1101,0.1241,0.1292,0.1303,0.1399,0.0943,0.11,0.1099,0.1099,0.1098,0.1098,0,-0.1009,-0.106,-0.1128,-0.1192,-0.1237,-0.1239,-0.1227,-0.1175,-0.106,-0.0861,-0.0645,-0.0079,0.0409,0.0844,0.1377,0.1567,0.1604,0.1638,0.1681,0.174,0.1358,0.1359,0.1563,0.1563,0.1563,0.1563,0.1562,0.1562,-0.1029,-0.11,-0.1138,-0.1227,-0.1268,-0.1279,-0.1259,-0.115,-0.0996,-0.0632,-0.03,-0.0021,0.0589,0.1445,0.193,0.1957,0.2127,0.2073,0.2187,0.1922,0.1888,0.1856,0.1872,0.218,0.2181,0.2552,0.2556,0.2559]}],[{"header":{"parameterUnit":"m.s-1","parameterCategory":2,"la1":30.2991,"la2":30.254,"lo1":-89.0895,"lo2":-89.0444,"dy":0.0017,"dx":0.0017,"nx":28,"ny":28,"refTime":"2024-08-27T03:00:00:Z","depth":"2","parameterNumber":2,"parameterNumberName":"U-component_of_CURRENTS"},"data":[0,0,0,0,0,0,0,0,0,0,0,0,0,0,0,0,0,0,0,0,0,0,0,0,0,0,0,0,0,0,0,0,0,0,0,0,0,0,0,0,0,0,0,0,0,0,0,0,0,0,0,0,0,0,0,0,0,0,-0.2756,-0.2756,0,-0.2821,-0.2822,-0.2823,-0.286,-0.286,-0.286,-0.286,-0.297,-0.2973,-0.2976,0,0,0,0,0,0,0,0,0,0,0,0,0,-0.268,-0.2681,-0.2756,-0.2756,-0.2757,-0.2821,-0.2822,-0.2823,-0.286,-0.286,-0.286,-0.286,-0.2969,-0.2972,-0.2976,0,0,0,0,0,0,0,0,0,0,0,0,0,-0.2727,-0.2682,-0.2755,-0.2782,-0.2785,-0.2821,-0.2822,-0.2823,-0.286,-0.286,-0.286,-0.286,-0.2968,-0.2972,-0.2976,-0.3004,0,0,-0.299,-0.2992,0,0,0,0,0,0,0,0,-0.2725,-0.273,-0.2777,-0.278,-0.2783,-0.2831,-0.2836,-0.2886,-0.286,-0.2833,-0.286,-0.286,-0.2927,-0.2934,-0.2948,-0.301,-0.3014,-0.299,-0.2993,-0.2995,-0.2996,0,0,0,0,0,0,0,-0.2721,-0.2728,-0.2783,-0.2778,-0.2782,-0.2796,-0.2803,-0.2845,-0.2881,-0.2836,-0.2838,-0.2843,-0.2929,-0.2944,-0.2951,-0.3016,-0.299,-0.2994,-0.2997,-0.2999,-0.3141,-0.3142,0,0,0,0,0,0,-0.2709,-0.2725,-0.2781,-0.2785,-0.2752,-0.2798,-0.2805,-0.2817,-0.288,-0.2889,-0.2843,-0.2844,-0.2936,-0.2946,-0.2955,-0.2984,-0.2995,-0.2999,-0.3002,-0.314,-0.3141,-0.3143,0,0,0,0,0,0,-0.2708,-0.2714,-0.2778,-0.2755,-0.2764,-0.2799,-0.2812,-0.2818,-0.2861,-0.2885,-0.2895,-0.2882,-0.2937,-0.2949,-0.3012,-0.2989,-0.3001,-0.3005,-0.3139,-0.314,-0.3142,-0.3046,0,0,0,0,0,0,-0.2705,-0.2713,-0.2725,-0.2754,-0.2764,-0.2814,-0.2812,-0.282,-0.2862,-0.2865,-0.2921,-0.2929,-0.2938,-0.3006,-0.3017,-0.2995,-0.3009,-0.3137,-0.3139,-0.3141,-0.3048,-0.3045,-0.3042,0,0,0,0,0,-0.2703,-0.2714,-0.2725,-0.2732,-0.2777,-0.2815,-0.2822,-0.2847,-0.2864,-0.2886,-0.2924,-0.2929,-0.3026,-0.3011,-0.3023,-0.3002,-0.3136,-0.3139,-0.3141,-0.305,-0.3045,-0.3042,0,0,0,0,0,0,-0.2676,-0.272,-0.2732,-0.2753,-0.2788,-0.2821,-0.2834,-0.2867,-0.2916,-0.2918,-0.2953,-0.2965,-0.3006,-0.3039,-0.3021,-0.3056,-0.3079,-0.3084,-0.3005,-0.3002,-0.2998,-0.2957,-0.3012,0,0,0,0,0,-0.2677,-0.2697,-0.2743,-0.2754,-0.2774,-0.2814,-0.2836,-0.2858,-0.2898,-0.292,-0.2953,-0.2991,-0.3024,-0.3042,-0.3079,-0.3108,-0.3104,-0.3105,-0.3102,-0.3098,-0.3077,-0.3061,-0.3052,-0.3151,-0.3151,-0.3151,0,0,-0.2661,-0.2689,-0.2697,-0.275,-0.2773,-0.2791,-0.2828,-0.2861,-0.2868,-0.2925,-0.2947,-0.299,-0.3036,-0.3053,-0.3074,-0.3077,-0.3071,-0.3102,-0.3097,-0.3078,-0.3063,-0.3052,-0.3043,-0.3153,-0.3152,-0.3152,0,0,-0.2626,-0.2673,-0.2676,-0.2712,-0.2756,-0.2784,-0.2804,-0.2852,-0.2871,-0.2912,-0.2939,-0.2965,-0.3036,-0.3029,-0.3045,-0.3057,-0.3061,-0.3088,-0.3023,-0.3007,-0.2997,-0.2988,-0.2962,-0.2952,-0.3076,-0.3076,-0.3075,0,-0.2602,-0.2622,-0.2681,-0.2694,-0.2715,-0.2784,-0.2792,-0.2819,-0.2876,-0.2888,-0.2911,-0.2978,-0.3006,-0.3007,-0.2996,-0.3038,-0.3041,-0.3022,-0.2995,-0.2987,-0.2979,-0.2955,-0.2945,-0.3071,-0.3072,-0.3072,-0.3073,0,-0.2565,-0.2593,-0.2599,-0.2637,-0.2671,-0.2694,-0.2741,-0.2774,-0.2813,-0.2833,-0.2865,-0.2898,-0.2933,-0.2942,-0.2966,-0.2934,-0.2958,-0.2993,-0.2986,-0.2962,-0.2941,-0.2931,-0.3065,-0.3067,-0.3068,-0.3069,0,0,-0.2478,-0.2558,-0.256,-0.2584,-0.2651,-0.2676,-0.2692,-0.2731,-0.2747,-0.278,-0.2788,-0.2806,-0.2832,-0.2852,-0.2882,-0.2852,-0.2787,-0.2892,-0.2894,-0.2833,-0.2749,-0.2676,-0.266,-0.2823,-0.2821,-0.282,-0.2751,0,-0.2431,-0.2451,-0.2502,-0.2522,-0.2546,-0.2618,-0.2633,-0.2673,-0.2716,-0.2741,-0.2756,-0.2784,-0.2797,-0.2818,-0.2784,-0.2815,-0.2761,-0.2802,-0.2812,-0.2811,-0.2721,-0.2646,-0.2468,-0.2384,-0.2742,-0.274,-0.2739,0,-0.2373,-0.2407,-0.2418,-0.2495,-0.251,-0.2524,-0.2584,-0.2609,-0.2655,-0.269,-0.2704,-0.2744,-0.2718,-0.2738,-0.2701,-0.2737,-0.2717,-0.2717,-0.2715,-0.2668,-0.272,-0.2473,-0.2354,-0.2724,-0.2725,-0.2726,-0.2727,0,-0.2293,-0.235,-0.2363,-0.2387,-0.2471,-0.2483,-0.2525,-0.2581,-0.261,-0.2654,-0.2683,-0.2681,-0.2693,-0.2667,-0.2663,-0.2689,-0.262,-0.2663,-0.2562,-0.2558,-0.2415,-0.2401,-0.2589,-0.2589,-0.2589,-0.259,-0.259,0,-0.2235,-0.2247,-0.2329,-0.2339,-0.2356,-0.2432,-0.2452,-0.2502,-0.2563,-0.2584,-0.2644,-0.265,-0.2677,-0.266,-0.2641,-0.2562,-0.2597,-0.2512,-0.2519,-0.238,-0.2364,-0.2681,-0.2692,-0.2587,-0.2588,-0.2588,-0.2588,0,-0.2145,-0.22,-0.2221,-0.2299,-0.2318,-0.2329,-0.241,-0.2434,-0.2508,-0.2536,-0.2551,-0.2619,-0.2593,-0.2598,-0.2563,-0.2528,-0.2472,-0.243,-0.2259,-0.2245,-0.2424,-0.2433,-0.2298,-0.2295,-0.2292,-0.2289,-0.2287,0,-0.2098,-0.2099,-0.2168,-0.2179,-0.221,-0.2248,-0.2278,-0.2379,-0.241,-0.2501,-0.2501,-0.2516,-0.248,-0.2412,-0.235,-0.2269,-0.2366,-0.2076,-0.2068,-0.2365,-0.2386,-0.24,-0.2412,-0.1846,-0.184,-0.1836,-0.1832,0,-0.2003,-0.2026,-0.2049,-0.207,-0.2097,-0.2132,-0.2181,-0.22,-0.2313,-0.2337,-0.2345,-0.2325,-0.2281,-0.2121,-0.2051,-0.1989,-0.2079,-0.198,-0.2311,-0.1957,-0.1935,-0.1958,-0.1985,-0.1792,-0.1796,-0.1799,-0.1801,-0.1802,-0.1915,-0.1905,-0.1928,-0.1938,-0.1974,-0.1981,-0.1952,-0.2019,-0.2026,-0.2025,-0.2111,-0.2027,-0.2031,-0.1811,-0.172,-0.166,-0.1798,-0.1735,-0.175,-0.177,-0.1739,-0.1714,-0.1523,-0.1525,-0.1527,-0.1529,-0.1531,0,-0.1789,-0.179,-0.1795,-0.1793,-0.1772,-0.1837,-0.1857,-0.1802,-0.1746,-0.1786,-0.175,-0.1575,-0.1475,-0.1488,-0.1325,-0.1299,-0.1299,-0.1257,-0.1261,-0.13,-0.1336,-0.1285,-0.0947,-0.0946,-0.0944,-0.0943,0,0,-0.1718,-0.1669,-0.1674,-0.158,-0.158,-0.1491,-0.1465,-0.1411,-0.1397,-0.1301,-0.1266,-0.1371,-0.1428,-0.1189,-0.1133,-0.1011,-0.1145,-0.096,-0.1424,-0.1466,-0.15,-0.1601,-0.1566,0,0,0,0,0]},{"header":{"parameterUnit":"m.s-1","parameterCategory":2,"la1":30.2991,"la2":30.254,"lo1":-89.0895,"lo2":-89.0444,"dy":0.0017,"dx":0.0017,"nx":28,"ny":28,"refTime":"2024-08-27T03:00:00:Z","depth":"2","parameterNumber":3,"parameterNumberName":"V-component_of_CURRENTS"},"data":[0,0,0,0,0,0,0,0,0,0,0,0,0,0,0,0,0,0,0,0,0,0,0,0,0,0,0,0,0,0,0,0,0,0,0,0,0,0,0,0,0,0,0,0,0,0,0,0,0,0,0,0,0,0,0,0,0,0,-0.0275,-0.0273,0,-0.0143,-0.0141,-0.014,-0.0039,-0.0038,-0.0038,-0.0037,0.0187,0.0192,0.0197,0,0,0,0,0,0,0,0,0,0,0,0,0,-0.038,-0.0379,-0.0275,-0.0273,-0.0272,-0.0143,-0.0141,-0.0139,-0.0039,-0.0038,-0.0037,-0.0036,0.0185,0.0191,0.0197,0,0,0,0,0,0,0,0,0,0,0,0,0,-0.0299,-0.0378,-0.0275,-0.0207,-0.02,-0.0144,-0.0141,-0.0139,-0.004,-0.0038,-0.0037,-0.0036,0.0183,0.0191,0.0198,0.0221,0,0,0.0222,0.0225,0,0,0,0,0,0,0,0,-0.0304,-0.0295,-0.0219,-0.0212,-0.0203,-0.0107,-0.0096,-0.0014,-0.004,-0.0099,-0.0037,-0.0035,0.0095,0.011,0.0133,0.0232,0.0241,0.0223,0.0227,0.0231,0.0233,0,0,0,0,0,0,0,-0.0309,-0.03,-0.0222,-0.0217,-0.0208,-0.0163,-0.015,-0.008,-0.0008,-0.0094,-0.0087,-0.0074,0.0101,0.0125,0.0139,0.0244,0.0222,0.0229,0.0234,0.0237,0.0415,0.0415,0,0,0,0,0,0,-0.0332,-0.0306,-0.0226,-0.0218,-0.0253,-0.0162,-0.0148,-0.0139,-0.0011,0.0009,-0.0075,-0.007,0.0111,0.013,0.0147,0.0201,0.0231,0.0238,0.0242,0.0415,0.0415,0.0415,0,0,0,0,0,0,-0.0335,-0.0327,-0.0231,-0.0259,-0.0244,-0.0162,-0.0152,-0.0137,-0.0105,0.0002,0.0024,-0.0059,0.0113,0.0136,0.0207,0.021,0.0241,0.0248,0.0415,0.0415,0.0415,0.0297,0,0,0,0,0,0,-0.0339,-0.0329,-0.0331,-0.0261,-0.0243,-0.0201,-0.0153,-0.0135,-0.01,-0.0091,0.0024,0.0046,0.0115,0.0195,0.0215,0.0221,0.0255,0.0415,0.0415,0.0415,0.0301,0.0293,0.0287,0,0,0,0,0,-0.0343,-0.0353,-0.0333,-0.0323,-0.0249,-0.0202,-0.0188,-0.0125,-0.0101,-0.0091,-0.0017,0.0042,0.0211,0.0201,0.0224,0.0233,0.0415,0.0415,0.0415,0.0304,0.0295,0.0287,0,0,0,0,0,0,-0.04,-0.0341,-0.0318,-0.0309,-0.0262,-0.0185,-0.0175,-0.0132,-0.0068,-0.006,0.0041,0.0067,0.0132,0.0197,0.0183,0.0286,0.0324,0.0328,0.0232,0.0224,0.0217,0.0203,0.0261,0,0,0,0,0,-0.0417,-0.0409,-0.0344,-0.0339,-0.0321,-0.0251,-0.0225,-0.0183,-0.0118,-0.0088,-0.001,0.0075,0.0149,0.0195,0.0268,0.0321,0.0375,0.0345,0.0337,0.0331,0.0337,0.0402,0.0401,0.0416,0.0416,0.0416,0,0,-0.044,-0.0407,-0.0403,-0.0351,-0.0312,-0.0288,-0.0232,-0.02,-0.0174,-0.0074,-0.0019,0.0051,0.0156,0.0215,0.0251,0.0272,0.0352,0.0331,0.0324,0.0334,0.0402,0.0401,0.0399,0.0416,0.0416,0.0416,0,0,-0.048,-0.0454,-0.0456,-0.0423,-0.0371,-0.0325,-0.032,-0.0247,-0.0207,-0.0153,-0.0075,-0.0008,0.0104,0.0178,0.0231,0.0229,0.0307,0.0255,0.0216,0.0278,0.0277,0.0277,0.0321,0.0326,0.0256,0.0255,0.0255,0,-0.0509,-0.05,-0.045,-0.0441,-0.042,-0.0347,-0.034,-0.0292,-0.0205,-0.0171,-0.0149,0.0009,0.0089,0.0175,0.0174,0.0214,0.0255,0.0234,0.0266,0.0267,0.0269,0.0316,0.0322,0.025,0.025,0.0251,0.0252,0,-0.0541,-0.0534,-0.0536,-0.0499,-0.047,-0.0458,-0.0387,-0.0352,-0.0303,-0.0243,-0.0161,-0.0062,0.0036,0.0067,0.0123,0.0182,0.0207,0.0241,0.0279,0.026,0.0311,0.032,0.0242,0.0244,0.0245,0.0247,0,0,-0.0595,-0.0566,-0.0564,-0.056,-0.0502,-0.048,-0.0445,-0.0381,-0.0352,-0.0273,-0.0223,-0.011,-0.0057,0.0007,0.0083,0.0139,0.0176,0.0187,0.0193,0.0216,0.0301,0.0329,0.0342,0.0211,0.0212,0.0213,0.0322,0,-0.0631,-0.0646,-0.0608,-0.0609,-0.0609,-0.054,-0.0511,-0.0446,-0.0379,-0.0315,-0.021,-0.0135,-0.0078,-0.0037,0.0026,0.015,0.0199,0.0143,0.0332,0.0337,0.0352,0.0354,0.0313,0.0408,0.0332,0.0333,0.0334,0,-0.0664,-0.067,-0.069,-0.0666,-0.0657,-0.0644,-0.0586,-0.0549,-0.0443,-0.039,-0.0302,-0.0211,-0.0103,-0.0064,0.0119,0.008,0.0177,0.0262,0.0269,0.0347,0.0383,0.0423,0.0429,0.0351,0.035,0.0348,0.0347,0,-0.0724,-0.0719,-0.0742,-0.0735,-0.0698,-0.0689,-0.0662,-0.0576,-0.0543,-0.0436,-0.0397,-0.0257,-0.0181,-0.0044,0.0134,0.0128,0.0328,0.0347,0.046,0.0463,0.0496,0.0499,0.0463,0.0463,0.0462,0.0462,0.0462,0,-0.0771,-0.0784,-0.0778,-0.0789,-0.081,-0.0756,-0.0749,-0.0698,-0.062,-0.0575,-0.0446,-0.0375,-0.0173,-0.0027,0.012,0.0322,0.0321,0.046,0.05,0.0452,0.045,0.0461,0.0459,0.0466,0.0465,0.0465,0.0464,0,-0.0821,-0.082,-0.0846,-0.0838,-0.0841,-0.0855,-0.0825,-0.0811,-0.073,-0.0668,-0.0637,-0.0455,-0.0256,-0.0054,0.0187,0.0308,0.0495,0.0562,0.0484,0.0513,0.0586,0.0577,0.0698,0.07,0.0702,0.0703,0.0704,0,-0.0846,-0.087,-0.0897,-0.0927,-0.0927,-0.094,-0.0946,-0.088,-0.0853,-0.0707,-0.0677,-0.0477,-0.0308,0.0046,0.0293,0.0553,0.0552,0.065,0.0639,0.0587,0.0613,0.0602,0.0591,0.0628,0.0628,0.0628,0.0629,0,-0.0892,-0.0904,-0.0931,-0.1,-0.1028,-0.1049,-0.1045,-0.1038,-0.0938,-0.0856,-0.0702,-0.0556,-0.0209,0.0091,0.0414,0.0551,0.0605,0.0667,0.0655,0.057,0.0529,0.0552,0.0542,0.0632,0.0632,0.0632,0.0631,0.0631,-0.0923,-0.0964,-0.1008,-0.1066,-0.1108,-0.1133,-0.1133,-0.109,-0.1027,-0.0866,-0.0729,-0.0475,-0.0199,0.0278,0.0499,0.0688,0.0689,0.073,0.0725,0.0721,0.069,0.0653,0.0773,0.0774,0.0774,0.0774,0.0775,0,-0.0955,-0.1004,-0.1069,-0.1133,-0.1179,-0.1182,-0.1176,-0.1132,-0.1035,-0.0859,-0.0671,-0.0349,-0.0011,0.0263,0.0582,0.0772,0.074,0.0779,0.0708,0.0703,0.0699,0.0664,0.0743,0.0743,0.0744,0.0744,0,0,-0.0976,-0.1045,-0.108,-0.1169,-0.1211,-0.123,-0.1216,-0.1121,-0.0985,-0.0788,-0.0592,-0.0328,0.0009,0.0231,0.0462,0.062,0.0604,0.0615,0.0619,0.0503,0.0497,0.0649,0.0587,0,0,0,0,0]}],[{"header":{"parameterUnit":"m.s-1","parameterCategory":2,"la1":30.2991,"la2":30.254,"lo1":-89.0895,"lo2":-89.0444,"dy":0.0017,"dx":0.0017,"nx":28,"ny":28,"refTime":"2024-08-27T03:00:00:Z","depth":"4","parameterNumber":2,"parameterNumberName":"U-component_of_CURRENTS"},"data":[0,0,0,0,0,0,0,0,0,0,0,0,0,0,0,0,0,0,0,0,0,0,0,0,0,0,0,0,0,0,0,0,0,0,0,0,0,0,0,0,0,0,0,0,0,0,0,0,0,0,0,0,0,0,0,0,0,0,-0.176,-0.176,0,-0.18,-0.1801,-0.1801,-0.1835,-0.1835,-0.1836,-0.1836,-0.1884,-0.1885,-0.1886,0,0,0,0,0,0,0,0,0,0,0,0,0,-0.174,-0.174,-0.176,-0.176,-0.1761,-0.18,-0.1801,-0.1801,-0.1834,-0.1835,-0.1836,-0.1836,-0.1884,-0.1885,-0.1886,0,0,0,0,0,0,0,0,0,0,0,0,0,-0.176,-0.174,-0.1759,-0.1783,-0.1786,-0.18,-0.1801,-0.1801,-0.1834,-0.1835,-0.1836,-0.1837,-0.1884,-0.1885,-0.1886,-0.1879,0,0,-0.189,-0.1891,0,0,0,0,0,0,0,0,-0.1759,-0.176,-0.1779,-0.1782,-0.1785,-0.1815,-0.1812,-0.1828,-0.1834,-0.1814,-0.1836,-0.1837,-0.1862,-0.1865,-0.1869,-0.1881,-0.1883,-0.189,-0.1891,-0.1891,-0.1892,0,0,0,0,0,0,0,-0.1757,-0.1759,-0.1774,-0.178,-0.1783,-0.1803,-0.1806,-0.1815,-0.1832,-0.1816,-0.1819,-0.1826,-0.1864,-0.1868,-0.187,-0.1884,-0.189,-0.1891,-0.1892,-0.1892,-0.1989,-0.1991,0,0,0,0,0,0,-0.1753,-0.1757,-0.1773,-0.1775,-0.1775,-0.1802,-0.1806,-0.1803,-0.1832,-0.1838,-0.1825,-0.1827,-0.1865,-0.1869,-0.1872,-0.1941,-0.1891,-0.1893,-0.1893,-0.1987,-0.199,-0.1992,0,0,0,0,0,0,-0.1752,-0.1754,-0.1771,-0.1769,-0.1773,-0.1802,-0.1798,-0.1803,-0.1841,-0.1839,-0.1845,-0.1861,-0.1866,-0.187,-0.1911,-0.194,-0.1893,-0.1894,-0.1985,-0.1988,-0.1991,-0.203,0,0,0,0,0,0,-0.1751,-0.1753,-0.1771,-0.1769,-0.1773,-0.1799,-0.1798,-0.1804,-0.1842,-0.1846,-0.1871,-0.1875,-0.1867,-0.1909,-0.1912,-0.1941,-0.1895,-0.1983,-0.1987,-0.199,-0.2027,-0.2034,-0.204,0,0,0,0,0,-0.175,-0.1772,-0.1772,-0.1775,-0.179,-0.18,-0.1804,-0.1826,-0.1844,-0.1862,-0.1885,-0.1876,-0.1933,-0.1911,-0.1915,-0.1945,-0.1981,-0.1985,-0.1989,-0.2024,-0.2033,-0.204,0,0,0,0,0,0,-0.1772,-0.1778,-0.1777,-0.1799,-0.1806,-0.1807,-0.184,-0.1846,-0.1878,-0.1899,-0.1894,-0.1899,-0.1939,-0.1945,-0.1921,-0.1986,-0.1958,-0.1963,-0.1983,-0.1992,-0.1998,-0.1991,-0.1896,0,0,0,0,0,-0.1783,-0.1802,-0.18,-0.1819,-0.1831,-0.184,-0.1857,-0.1868,-0.1886,-0.1903,-0.192,-0.1944,-0.1952,-0.1976,-0.1982,-0.2024,-0.2003,-0.2049,-0.2056,-0.2062,-0.2061,-0.2054,-0.2059,-0.2005,-0.2005,-0.2005,0,0,-0.1795,-0.1803,-0.1814,-0.1826,-0.184,-0.1858,-0.1854,-0.189,-0.1912,-0.1902,-0.196,-0.1963,-0.1966,-0.2002,-0.2024,-0.2018,-0.2068,-0.2067,-0.2072,-0.2067,-0.2059,-0.2064,-0.2068,-0.2008,-0.2007,-0.2007,0,0,-0.1808,-0.1839,-0.185,-0.1867,-0.1894,-0.1903,-0.192,-0.1941,-0.1967,-0.2011,-0.2002,-0.2027,-0.2067,-0.2062,-0.2065,-0.212,-0.2093,-0.2136,-0.2177,-0.2172,-0.2175,-0.2178,-0.2156,-0.2157,-0.2153,-0.2153,-0.2153,0,-0.1819,-0.183,-0.1856,-0.1873,-0.1894,-0.1926,-0.1941,-0.1973,-0.2007,-0.2023,-0.2045,-0.2083,-0.209,-0.2105,-0.2127,-0.2132,-0.2121,-0.2141,-0.2178,-0.218,-0.2182,-0.2159,-0.2159,-0.2156,-0.2155,-0.2155,-0.2155,0,-0.1819,-0.1852,-0.187,-0.1897,-0.1927,-0.1956,-0.1992,-0.2037,-0.2082,-0.2097,-0.2141,-0.2152,-0.2168,-0.2184,-0.2176,-0.2198,-0.218,-0.2172,-0.2149,-0.219,-0.2163,-0.2163,-0.2159,-0.2158,-0.2157,-0.2157,0,0,-0.1765,-0.1848,-0.1857,-0.1882,-0.1946,-0.1964,-0.2027,-0.2064,-0.2098,-0.2157,-0.2184,-0.2219,-0.2226,-0.223,-0.2225,-0.2237,-0.2244,-0.2225,-0.2224,-0.2189,-0.2223,-0.2076,-0.206,-0.2244,-0.2244,-0.2244,-0.2196,0,-0.1748,-0.1788,-0.1835,-0.1888,-0.1914,-0.1981,-0.2028,-0.208,-0.2133,-0.2177,-0.2207,-0.2235,-0.2244,-0.2255,-0.2269,-0.2244,-0.2245,-0.2257,-0.2201,-0.2199,-0.2051,-0.2055,-0.2245,-0.2195,-0.2195,-0.2195,-0.2195,0,-0.171,-0.1751,-0.1795,-0.1885,-0.1903,-0.1944,-0.2025,-0.2071,-0.2143,-0.2185,-0.2229,-0.2248,-0.2274,-0.2279,-0.2271,-0.2281,-0.2256,-0.2243,-0.2241,-0.2086,-0.2049,-0.2149,-0.2193,-0.2193,-0.2193,-0.2193,-0.2194,0,-0.1637,-0.1719,-0.1759,-0.179,-0.1893,-0.1931,-0.1988,-0.2069,-0.211,-0.2186,-0.222,-0.2255,-0.2275,-0.2269,-0.2254,-0.2266,-0.2231,-0.2236,-0.2077,-0.2066,-0.2196,-0.2194,-0.2218,-0.2218,-0.2218,-0.2218,-0.2218,0,-0.1583,-0.1621,-0.1737,-0.176,-0.1811,-0.1898,-0.1954,-0.2019,-0.21,-0.2131,-0.2214,-0.2225,-0.2277,-0.2268,-0.2249,-0.2148,-0.2223,-0.2069,-0.2039,-0.2216,-0.2216,-0.2195,-0.2193,-0.2216,-0.2217,-0.2217,-0.2217,0,-0.1494,-0.1572,-0.1626,-0.1742,-0.1779,-0.1817,-0.1932,-0.1969,-0.2063,-0.2104,-0.213,-0.2205,-0.2182,-0.22,-0.2176,-0.2115,-0.205,-0.1994,-0.217,-0.2154,-0.1893,-0.1895,-0.1807,-0.1801,-0.1796,-0.1792,-0.1789,0,-0.1448,-0.1469,-0.1595,-0.1629,-0.1686,-0.1762,-0.181,-0.193,-0.1962,-0.2064,-0.206,-0.2087,-0.2112,-0.1949,-0.1996,-0.1926,-0.1908,-0.187,-0.1892,-0.1868,-0.1849,-0.1858,-0.1866,-0.1781,-0.178,-0.1779,-0.1777,0,-0.1358,-0.1417,-0.1465,-0.1532,-0.1594,-0.1649,-0.1723,-0.1731,-0.1851,-0.1963,-0.1919,-0.1896,-0.186,-0.1832,-0.1785,-0.1746,-0.1896,-0.1819,-0.183,-0.1851,-0.1836,-0.1824,-0.1837,-0.1761,-0.1763,-0.1765,-0.1766,0,-0.1287,-0.1299,-0.1367,-0.141,-0.1485,-0.1498,-0.156,-0.1584,-0.1627,-0.1748,-0.1724,-0.1757,-0.1826,-0.1735,-0.1696,-0.1639,-0.1621,-0.1581,-0.1604,-0.1623,-0.1586,-0.1543,-0.1335,0,0,0,0,0,-0.1206,-0.1201,-0.1237,-0.1272,-0.1343,-0.1377,-0.1481,-0.1549,-0.1667,-0.1585,-0.1646,-0.1602,-0.1543,-0.1568,-0.1465,-0.1617,-0.1632,-0.1495,-0.1601,-0.1667,-0.1687,-0.1662,0,0,0,0,0,0,-0.1148,-0.1174,-0.1186,-0.1144,-0.1141,-0.1193,-0.1251,-0.1339,-0.1299,-0.1426,-0.1392,-0.1495,-0.1452,-0.1553,-0.1423,-0.143,-0.1463,-0.1531,-0.1526,-0.1656,-0.1674,-0.169,-0.1671,0,0,0,0,0]},{"header":{"parameterUnit":"m.s-1","parameterCategory":2,"la1":30.2991,"la2":30.254,"lo1":-89.0895,"lo2":-89.0444,"dy":0.0017,"dx":0.0017,"nx":28,"ny":28,"refTime":"2024-08-27T03:00:00:Z","depth":"4","parameterNumber":3,"parameterNumberName":"V-component_of_CURRENTS"},"data":[0,0,0,0,0,0,0,0,0,0,0,0,0,0,0,0,0,0,0,0,0,0,0,0,0,0,0,0,0,0,0,0,0,0,0,0,0,0,0,0,0,0,0,0,0,0,0,0,0,0,0,0,0,0,0,0,0,0,-0.0249,-0.0248,0,-0.0188,-0.0188,-0.0187,-0.0137,-0.0136,-0.0136,-0.0135,-0.0047,-0.0045,-0.0043,0,0,0,0,0,0,0,0,0,0,0,0,0,-0.0292,-0.0291,-0.0249,-0.0248,-0.0247,-0.0188,-0.0188,-0.0187,-0.0137,-0.0136,-0.0136,-0.0135,-0.0048,-0.0045,-0.0043,0,0,0,0,0,0,0,0,0,0,0,0,0,-0.0257,-0.0291,-0.0249,-0.0215,-0.0212,-0.0189,-0.0188,-0.0187,-0.0137,-0.0136,-0.0135,-0.0135,-0.0048,-0.0046,-0.0043,-0.0043,0,0,-0.0034,-0.0033,0,0,0,0,0,0,0,0,-0.0259,-0.0255,-0.0221,-0.0218,-0.0213,-0.0169,-0.017,-0.0137,-0.0137,-0.0166,-0.0135,-0.0134,-0.0086,-0.008,-0.0071,-0.0038,-0.0035,-0.0034,-0.0033,-0.0031,-0.0031,0,0,0,0,0,0,0,-0.0261,-0.0257,-0.0225,-0.022,-0.0216,-0.0193,-0.0187,-0.0164,-0.0131,-0.0163,-0.0159,-0.0152,-0.0083,-0.0074,-0.0068,-0.0033,-0.0034,-0.0032,-0.003,-0.0029,0.0025,0.0025,0,0,0,0,0,0,-0.0271,-0.026,-0.0227,-0.0223,-0.0234,-0.0193,-0.0187,-0.0184,-0.0131,-0.0123,-0.0153,-0.015,-0.0079,-0.0072,-0.0065,-0.0037,-0.0031,-0.0029,-0.0027,0.0025,0.0025,0.0025,0,0,0,0,0,0,-0.0272,-0.0269,-0.023,-0.024,-0.0233,-0.0193,-0.0191,-0.0184,-0.0172,-0.0124,-0.0115,-0.0149,-0.0078,-0.0069,-0.0045,-0.0034,-0.0028,-0.0025,0.0025,0.0025,0.0025,0.0004,0,0,0,0,0,0,-0.0274,-0.027,-0.0275,-0.0241,-0.0233,-0.0218,-0.0191,-0.0183,-0.0169,-0.0164,-0.0117,-0.0108,-0.0077,-0.005,-0.0042,-0.003,-0.0023,0.0026,0.0025,0.0025,0.0005,0.0003,0.0001,0,0,0,0,0,-0.0276,-0.0285,-0.0276,-0.0272,-0.024,-0.0219,-0.0213,-0.0181,-0.017,-0.0167,-0.0136,-0.011,-0.0047,-0.0048,-0.0039,-0.0026,0.0026,0.0025,0.0025,0.0005,0.0003,0.0001,0,0,0,0,0,0,-0.0309,-0.028,-0.0269,-0.0271,-0.0248,-0.021,-0.0209,-0.0187,-0.0162,-0.016,-0.0115,-0.0104,-0.0084,-0.0056,-0.0058,-0.0013,-0.0005,-0.0004,-0.0023,-0.0025,-0.0027,-0.0028,-0.0021,0,0,0,0,0,-0.032,-0.0321,-0.0287,-0.0291,-0.0281,-0.0248,-0.0237,-0.0215,-0.0187,-0.0175,-0.014,-0.0106,-0.008,-0.0054,-0.0035,-0.0006,0.0028,0.0008,0.0006,0.0004,0.0008,0.0071,0.0075,0.0023,0.0023,0.0023,0,0,-0.0336,-0.032,-0.0322,-0.0298,-0.0281,-0.0269,-0.0239,-0.0227,-0.0212,-0.017,-0.0146,-0.0121,-0.008,-0.0052,-0.0038,-0.0022,0.0034,0.0004,0.0002,0.0007,0.0071,0.0076,0.0081,0.0023,0.0023,0.0023,0,0,-0.0365,-0.0355,-0.0361,-0.0345,-0.0319,-0.0294,-0.0293,-0.0256,-0.0233,-0.0212,-0.0178,-0.0141,-0.0105,-0.0058,-0.0034,-0.0033,0.0008,-0.0034,-0.0023,0.0037,0.0043,0.0048,0.0086,0.0095,-0.0017,-0.0017,-0.0017,0,-0.0386,-0.0387,-0.036,-0.0358,-0.0349,-0.0308,-0.0308,-0.028,-0.0238,-0.0217,-0.021,-0.014,-0.0102,-0.0048,-0.0044,-0.0034,-0.0006,-0.0016,0.0037,0.0043,0.0048,0.0087,0.0097,-0.0018,-0.0018,-0.0018,-0.0018,0,-0.0411,-0.0413,-0.0418,-0.04,-0.0385,-0.0383,-0.0338,-0.0319,-0.0291,-0.0253,-0.0208,-0.0154,-0.0105,-0.0085,-0.0061,-0.0002,0.0001,0.0014,0.0045,0.0053,0.0092,0.0103,-0.002,-0.0019,-0.0019,-0.0019,0,0,-0.0448,-0.0439,-0.0439,-0.0442,-0.0408,-0.04,-0.0376,-0.0334,-0.0316,-0.0262,-0.0226,-0.016,-0.0125,-0.0095,-0.0051,0.0015,0.008,0.0033,0.0036,0.0074,0.0198,0.017,0.018,0.0103,0.0105,0.0107,0.0205,0,-0.0475,-0.0494,-0.0472,-0.0481,-0.0485,-0.0442,-0.0424,-0.038,-0.0336,-0.029,-0.0208,-0.0169,-0.0128,-0.0107,-0.0033,0.0043,0.0109,0.0051,0.0181,0.0185,0.0164,0.0192,0.0113,0.0213,0.0216,0.0218,0.0219,0,-0.0498,-0.0509,-0.0533,-0.0525,-0.0522,-0.052,-0.0484,-0.046,-0.038,-0.0344,-0.0272,-0.0214,-0.0113,-0.0087,0.0073,0.0031,0.0111,0.0178,0.0184,0.0176,0.0178,0.0207,0.0239,0.0238,0.0236,0.0235,0.0233,0,-0.0536,-0.0544,-0.057,-0.0569,-0.0554,-0.0555,-0.0543,-0.0482,-0.0461,-0.0378,-0.035,-0.0228,-0.0173,-0.0047,0.009,0.0083,0.0261,0.027,0.0325,0.0323,0.0327,0.0321,0.0389,0.0388,0.0388,0.0388,0.0388,0,-0.0562,-0.0581,-0.0598,-0.0612,-0.0641,-0.0609,-0.0614,-0.0579,-0.0524,-0.0491,-0.0386,-0.033,-0.016,-0.0039,0.0086,0.0235,0.0262,0.0333,0.0355,0.0313,0.0304,0.0335,0.0327,0.0392,0.0391,0.039,0.0389,0,-0.0588,-0.0601,-0.0635,-0.0649,-0.0662,-0.0682,-0.0681,-0.0673,-0.0617,-0.0571,-0.0547,-0.0401,-0.0242,-0.0074,0.0132,0.0217,0.0368,0.0414,0.0345,0.036,0.039,0.038,0.0486,0.0486,0.0486,0.0486,0.0487,0,-0.0598,-0.0624,-0.0676,-0.0712,-0.0726,-0.0754,-0.077,-0.073,-0.0712,-0.0606,-0.058,-0.0428,-0.0314,-0.004,0.0127,0.0358,0.0387,0.045,0.0437,0.0394,0.0405,0.0394,0.0385,0.0487,0.0487,0.0487,0.0487,0,-0.0619,-0.0647,-0.068,-0.076,-0.0801,-0.0833,-0.0848,-0.084,-0.0771,-0.0727,-0.0586,-0.0429,-0.0252,-0.0041,0.013,0.0298,0.0402,0.0451,0.0452,0.0441,0.0395,0.0404,0.0394,0.0487,0.0487,0.0487,0.0487,0,-0.0637,-0.0674,-0.0731,-0.0793,-0.0856,-0.0886,-0.0889,-0.0846,-0.0815,-0.0686,-0.0642,-0.043,-0.0306,-0.0071,0.0093,0.0246,0.0284,0.0322,0.033,0.0332,0.0253,0.017,0.0221,0,0,0,0,0,-0.0644,-0.0692,-0.0758,-0.0826,-0.0887,-0.0913,-0.0924,-0.0908,-0.0846,-0.0752,-0.0689,-0.0513,-0.0245,-0.0124,0.0026,0.0074,0.0288,0.025,0.033,0.0487,0.0487,0.0418,0,0,0,0,0,0,-0.0655,-0.0721,-0.0756,-0.0834,-0.0881,-0.0933,-0.0938,-0.0898,-0.083,-0.0748,-0.0601,-0.0499,-0.024,-0.033,0.0023,0.007,0.0135,0.0384,0.0387,0.0487,0.0487,0.0487,0.0416,0,0,0,0,0]}]]